[[{"header":{"parameterUnit":"m.s-1","parameterCategory":1,"la1":30.2991,"la2":30.254,"lo1":-89.0895,"lo2":-89.0444,"dy":0.0017,"dx":0.0017,"nx":28,"ny":28,"refTime":"2024-04-01T21:00:00:Z","depth":0,"parameterNumber":2,"parameterNumberName":"U-component_of_WINDS"},"data":[0,0,0,0,0,0,0,0,0,0,0,0,0,0,0,0,0,0,0,0,0,0,0,0,0,0,0,0,0,0,0,0,0,0,0,0,0,0,0,0,0,0,0,0,0,0,0,0,0,0,0,0,0,0,0,0,0,0,4.8925,4.8925,0,4.8972,4.8972,4.8973,4.8945,4.8943,4.8942,4.8941,4.8987,4.899,4.8992,0,0,0,0,0,0,0,0,0,0,0,0,0,4.8811,4.8814,4.8925,4.8925,4.8926,4.8972,4.8972,4.8973,4.8945,4.8943,4.8942,4.894,4.8986,4.8989,4.8992,0,0,0,0,0,0,0,0,0,0,0,0,0,4.886,4.8814,4.8925,4.8917,4.8917,4.8971,4.8972,4.8973,4.8945,4.8943,4.8941,4.8939,4.8985,4.8989,4.8993,4.9056,0,0,4.9004,4.9006,0,0,0,0,0,0,0,0,4.8857,4.8864,4.8918,4.8918,4.8918,4.895,4.8949,4.9001,4.8946,4.8935,4.8941,4.8938,4.8977,4.8981,4.8994,4.9058,4.906,4.9005,4.9007,4.9008,4.9009,0,0,0,0,0,0,0,4.8854,4.8862,4.8943,4.8919,4.8919,4.8912,4.8917,4.8959,4.8966,4.8935,4.8933,4.8939,4.8976,4.899,4.8995,4.9061,4.9004,4.9008,4.901,4.9012,4.9183,4.9185,0,0,0,0,0,0,4.8851,4.8859,4.8942,4.8945,4.8882,4.8916,4.8921,4.8942,4.8966,4.8967,4.8941,4.8938,4.8985,4.8991,4.8996,4.9074,4.9008,4.9012,4.9014,4.9181,4.9183,4.9186,0,0,0,0,0,0,4.8849,4.8859,4.894,4.8901,4.8911,4.892,4.8944,4.8944,4.8958,4.897,4.8971,4.8955,4.8984,4.8991,4.9042,4.9075,4.9014,4.9017,4.9178,4.9182,4.9185,4.9229,0,0,0,0,0,0,4.8845,4.8858,4.8882,4.8902,4.8913,4.8985,4.8946,4.8946,4.8965,4.8961,4.8983,4.8984,4.8983,4.9037,4.9046,4.9079,4.902,4.9175,4.918,4.9184,4.9224,4.9233,4.9241,0,0,0,0,0,4.8842,4.8891,4.8883,4.8893,4.8943,4.8987,4.8993,4.899,4.8968,4.8992,4.9,4.8984,4.907,4.9042,4.9052,4.9087,4.9173,4.9178,4.9183,4.9221,4.9232,4.9241,0,0,0,0,0,0,4.8873,4.8894,4.8885,4.8942,4.8963,4.8982,4.9012,4.9002,4.9029,4.9024,4.9019,4.9024,4.9078,4.9088,4.9056,4.9151,4.9118,4.9126,4.9143,4.9153,4.9162,4.9158,4.9023,0,0,0,0,0,4.8887,4.892,4.8936,4.8986,4.8997,4.9003,4.9022,4.9018,4.9039,4.9048,4.9059,4.908,4.9112,4.9133,4.9163,4.9226,4.9231,4.9255,4.9263,4.927,4.9277,4.9313,4.9324,4.9203,4.9203,4.9203,0,0,4.8915,4.8931,4.8952,4.8993,4.9008,4.9044,4.901,4.9048,4.9075,4.9053,4.9103,4.9113,4.9136,4.9194,4.922,4.9203,4.9312,4.9277,4.9282,4.9285,4.9319,4.9331,4.9341,4.9207,4.9206,4.9205,0,0,4.8985,4.9,4.9044,4.9061,4.9086,4.909,4.9101,4.9122,4.9128,4.9178,4.9163,4.9195,4.925,4.9268,4.9284,4.9365,4.9351,4.9375,4.9418,4.9453,4.9463,4.9471,4.9501,4.9512,4.9381,4.9381,4.9381,0,4.9017,4.907,4.9067,4.9108,4.9127,4.9111,4.9156,4.9173,4.9206,4.922,4.9201,4.9272,4.9286,4.9349,4.9369,4.9382,4.9395,4.9372,4.9462,4.947,4.9478,4.9507,4.9518,4.9384,4.9384,4.9383,4.9383,0,4.9109,4.9146,4.9179,4.9213,4.9236,4.9278,4.9283,4.9307,4.9302,4.9309,4.9361,4.9379,4.9413,4.9428,4.9423,4.9491,4.948,4.9462,4.9428,4.9492,4.9519,4.953,4.9388,4.9387,4.9386,4.9385,0,0,4.9198,4.9233,4.9245,4.9261,4.9289,4.9318,4.936,4.9395,4.9416,4.9441,4.9477,4.9526,4.951,4.9528,4.9526,4.9557,4.9622,4.9535,4.9535,4.9551,4.9701,4.9715,4.9728,4.9614,4.9616,4.9618,4.9699,0,4.927,4.9345,4.9346,4.9416,4.9451,4.9438,4.9475,4.9497,4.9505,4.9536,4.9545,4.958,4.9556,4.9568,4.9598,4.9608,4.9652,4.9602,4.9649,4.965,4.9643,4.9741,4.9756,4.9832,4.971,4.9711,4.9713,0,4.9365,4.9394,4.9467,4.9493,4.9508,4.9541,4.9575,4.9605,4.963,4.9634,4.9657,4.965,4.9695,4.9661,4.9723,4.9689,4.9709,4.9717,4.972,4.9724,4.9685,4.9749,4.9856,4.9867,4.9729,4.9728,4.9727,0,4.9424,4.9482,4.9534,4.9548,4.9578,4.9603,4.9617,4.964,4.9662,4.9691,4.9706,4.974,4.9758,4.9785,4.9789,4.9763,4.9852,4.9818,4.9857,4.9858,4.9876,4.9875,4.9988,4.9888,4.9888,4.9888,4.9888,0,4.9505,4.9551,4.9561,4.9593,4.9645,4.9646,4.9697,4.9708,4.973,4.9765,4.9755,4.9788,4.979,4.9824,4.9827,4.988,4.9888,4.9893,4.9893,4.9894,4.9894,4.9906,4.9901,4.9891,4.989,4.989,4.9889,0,4.958,4.9588,4.9644,4.967,4.9677,4.9714,4.9736,4.9767,4.9776,4.982,4.983,4.9843,4.9883,4.989,4.9936,4.9938,5.0001,4.9996,4.9993,4.9993,5.0032,5.0029,5.0158,5.0176,5.0064,5.0065,5.0066,0,4.9631,4.9666,4.9697,4.972,4.9735,4.9772,4.9795,4.9798,4.9823,4.9856,4.9884,4.9923,4.9954,5.0019,5.0033,5.0069,5.0065,5.0108,5.007,5.0071,5.0067,5.0065,5.0069,5.0115,5.0116,5.0117,5.0118,0,4.9722,4.9726,4.9759,4.9796,4.9824,4.9852,4.9879,4.9898,4.9905,4.9934,4.9975,5.0,5.0049,5.0088,5.0125,5.014,5.0131,5.013,5.0141,5.0142,5.014,5.0143,5.0014,5.0126,5.0126,5.0125,5.0124,5.0124,4.9787,4.9819,4.9846,4.9885,4.9906,4.9932,4.9963,4.9977,5.0011,5.0052,5.0052,5.0098,5.0125,5.0173,5.0191,5.0227,5.0213,5.0229,5.0233,5.0237,5.0242,5.0134,5.0234,5.0233,5.0233,5.0233,5.0233,0,4.9879,4.9897,4.9932,4.9971,5.0002,4.9992,5.0022,5.0049,5.009,5.0116,5.0148,5.0197,5.0236,5.0254,5.0293,5.0319,5.0316,5.0329,5.0327,5.0331,5.0251,5.0238,5.0331,5.0331,5.0331,5.0331,5.0331,5.0331,4.993,4.9984,4.9991,5.0056,5.0073,5.0119,5.0137,5.0162,5.0183,5.0238,5.0271,5.0283,5.0306,5.0348,5.0384,5.0388,5.0403,5.0419,5.0421,5.0346,5.0336,5.0327,5.0314,5.0422,5.0422,5.0498,5.0498,5.0499]},{"header":{"parameterUnit":"m.s-1","parameterCategory":1,"la1":30.2991,"la2":30.254,"lo1":-89.0895,"lo2":-89.0444,"dy":0.0017,"dx":0.0017,"nx":28,"ny":28,"refTime":"2024-04-01T21:00:00:Z","depth":0,"parameterNumber":3,"parameterNumberName":"V-component_of_WINDS"},"data":[0,0,0,0,0,0,0,0,0,0,0,0,0,0,0,0,0,0,0,0,0,0,0,0,0,0,0,0,0,0,0,0,0,0,0,0,0,0,0,0,0,0,0,0,0,0,0,0,0,0,0,0,0,0,0,0,0,0,-5.1448,-5.1449,0,-5.1538,-5.1539,-5.154,-5.1544,-5.1543,-5.1542,-5.1541,-5.1628,-5.1632,-5.1635,0,0,0,0,0,0,0,0,0,0,0,0,0,-5.1281,-5.1284,-5.1448,-5.145,-5.1451,-5.1537,-5.1539,-5.154,-5.1544,-5.1543,-5.1542,-5.1541,-5.1627,-5.1631,-5.1635,0,0,0,0,0,0,0,0,0,0,0,0,0,-5.136,-5.1285,-5.1448,-5.1463,-5.1466,-5.1537,-5.1539,-5.154,-5.1545,-5.1543,-5.1542,-5.154,-5.1626,-5.1631,-5.1636,-5.1697,0,0,-5.1651,-5.1653,0,0,0,0,0,0,0,0,-5.1356,-5.1366,-5.146,-5.1463,-5.1465,-5.1528,-5.1512,-5.1593,-5.1545,-5.1515,-5.1541,-5.1539,-5.1596,-5.1603,-5.1623,-5.1701,-5.1705,-5.1651,-5.1654,-5.1656,-5.1658,0,0,0,0,0,0,0,-5.135,-5.1362,-5.1484,-5.1461,-5.1465,-5.1465,-5.1475,-5.1527,-5.1563,-5.1517,-5.1518,-5.1528,-5.1597,-5.1619,-5.1625,-5.1706,-5.1651,-5.1655,-5.1658,-5.166,-5.1841,-5.1843,0,0,0,0,0,0,-5.1342,-5.1358,-5.1481,-5.1486,-5.1406,-5.147,-5.148,-5.1509,-5.1562,-5.1569,-5.153,-5.1528,-5.1611,-5.162,-5.1628,-5.1706,-5.1656,-5.1661,-5.1664,-5.1839,-5.1842,-5.1844,0,0,0,0,0,0,-5.1338,-5.1353,-5.1477,-5.1422,-5.1438,-5.1474,-5.1507,-5.1512,-5.1534,-5.1572,-5.1578,-5.1545,-5.161,-5.1622,-5.1681,-5.1708,-5.1663,-5.1668,-5.1837,-5.184,-5.1843,-5.1859,0,0,0,0,0,0,-5.1334,-5.1352,-5.1375,-5.1423,-5.1441,-5.1528,-5.1509,-5.1515,-5.1542,-5.1542,-5.1588,-5.1594,-5.161,-5.1673,-5.1686,-5.1714,-5.1671,-5.1835,-5.1838,-5.1842,-5.1856,-5.1862,-5.1867,0,0,0,0,0,-5.1328,-5.1375,-5.1376,-5.1391,-5.1472,-5.153,-5.154,-5.1559,-5.1545,-5.1569,-5.1594,-5.1592,-5.1704,-5.1679,-5.1693,-5.1724,-5.1833,-5.1837,-5.1841,-5.1853,-5.186,-5.1866,0,0,0,0,0,0,-5.1327,-5.1381,-5.1383,-5.1447,-5.1484,-5.153,-5.1561,-5.1565,-5.1605,-5.1603,-5.1623,-5.1633,-5.1692,-5.1714,-5.1686,-5.1787,-5.1767,-5.1774,-5.1771,-5.1778,-5.1783,-5.1777,-5.1675,0,0,0,0,0,-5.1335,-5.1378,-5.1423,-5.1475,-5.1494,-5.1525,-5.155,-5.1562,-5.16,-5.1615,-5.1644,-5.1681,-5.1725,-5.1752,-5.1794,-5.1859,-5.187,-5.1887,-5.1893,-5.1897,-5.1903,-5.1941,-5.195,-5.1857,-5.1857,-5.1857,0,0,-5.135,-5.1385,-5.1411,-5.1476,-5.1506,-5.1551,-5.1537,-5.1584,-5.1618,-5.1622,-5.1681,-5.1704,-5.1746,-5.1809,-5.1838,-5.1829,-5.1931,-5.1902,-5.1905,-5.1909,-5.1946,-5.1955,-5.1963,-5.186,-5.186,-5.1859,0,0,-5.1402,-5.1432,-5.148,-5.1511,-5.1558,-5.1579,-5.159,-5.1637,-5.1653,-5.1713,-5.1718,-5.1757,-5.1831,-5.1862,-5.1887,-5.1955,-5.1955,-5.1968,-5.1996,-5.2033,-5.204,-5.2047,-5.2072,-5.2081,-5.1973,-5.1973,-5.1973,0,-5.1414,-5.1483,-5.1504,-5.1552,-5.1581,-5.159,-5.1639,-5.1668,-5.1725,-5.1745,-5.1734,-5.1829,-5.1858,-5.193,-5.1947,-5.1966,-5.1981,-5.1962,-5.2037,-5.2044,-5.2051,-5.2075,-5.2085,-5.1975,-5.1974,-5.1974,-5.1974,0,-5.1498,-5.1545,-5.1578,-5.1636,-5.1669,-5.1717,-5.1746,-5.1776,-5.1786,-5.1808,-5.187,-5.1905,-5.1956,-5.1974,-5.1982,-5.2047,-5.204,-5.2033,-5.2013,-5.2061,-5.2084,-5.2093,-5.1976,-5.1976,-5.1976,-5.1975,0,0,-5.1549,-5.162,-5.1632,-5.166,-5.1713,-5.175,-5.18,-5.1851,-5.1878,-5.1918,-5.196,-5.2025,-5.202,-5.2048,-5.2061,-5.2093,-5.2147,-5.2083,-5.2084,-5.2094,-5.2223,-5.2228,-5.2239,-5.2148,-5.215,-5.2151,-5.222,0,-5.1607,-5.1697,-5.1719,-5.1795,-5.1841,-5.1851,-5.1895,-5.1932,-5.1955,-5.1996,-5.2021,-5.2067,-5.2056,-5.2074,-5.2106,-5.2133,-5.2173,-5.2128,-5.2188,-5.219,-5.2177,-5.2251,-5.2256,-5.2319,-5.2229,-5.223,-5.2232,0,-5.1686,-5.1731,-5.1813,-5.1863,-5.1883,-5.1922,-5.1972,-5.2012,-5.2055,-5.207,-5.2104,-5.2114,-5.2166,-5.2144,-5.2218,-5.2187,-5.2213,-5.223,-5.2233,-5.2239,-5.2213,-5.226,-5.2339,-5.2349,-5.2246,-5.2245,-5.2244,0,-5.1717,-5.1797,-5.1858,-5.1881,-5.1941,-5.1968,-5.1994,-5.2036,-5.2067,-5.2111,-5.2131,-5.218,-5.2207,-5.2244,-5.2268,-5.2249,-5.234,-5.2319,-5.2354,-5.2353,-5.2372,-5.237,-5.2457,-5.2387,-5.2387,-5.2387,-5.2387,0,-5.178,-5.183,-5.1873,-5.191,-5.1967,-5.1992,-5.2047,-5.2073,-5.2112,-5.2154,-5.2165,-5.2205,-5.2233,-5.2276,-5.2295,-5.2354,-5.2365,-5.2379,-5.2383,-5.2378,-5.2377,-5.2395,-5.2392,-5.239,-5.2389,-5.2389,-5.2388,0,-5.1824,-5.1854,-5.1921,-5.1974,-5.1988,-5.2028,-5.2073,-5.211,-5.2134,-5.2188,-5.2202,-5.2239,-5.2292,-5.2319,-5.2383,-5.2396,-5.2463,-5.2464,-5.2448,-5.245,-5.2484,-5.2481,-5.2586,-5.2602,-5.2521,-5.2522,-5.2522,0,-5.1862,-5.1901,-5.1959,-5.199,-5.2017,-5.2065,-5.2097,-5.2124,-5.2157,-5.2212,-5.2242,-5.2296,-5.234,-5.2423,-5.2455,-5.2505,-5.2508,-5.2542,-5.2516,-5.2511,-5.251,-5.2508,-5.2513,-5.2546,-5.2547,-5.2548,-5.2548,0,-5.1927,-5.1941,-5.1988,-5.2041,-5.208,-5.2122,-5.2164,-5.2188,-5.2222,-5.2259,-5.2314,-5.2348,-5.2416,-5.2469,-5.2522,-5.2549,-5.2555,-5.2557,-5.2568,-5.2563,-5.2553,-5.256,-5.2462,-5.2554,-5.2553,-5.2553,-5.2553,-5.2552,-5.197,-5.2006,-5.2054,-5.2107,-5.2142,-5.2182,-5.222,-5.225,-5.2297,-5.2355,-5.2368,-5.2426,-5.2471,-5.2544,-5.2572,-5.2618,-5.2611,-5.2627,-5.2631,-5.2634,-5.2637,-5.2546,-5.2628,-5.2628,-5.2628,-5.2628,-5.2627,0,-5.2037,-5.2069,-5.2117,-5.2177,-5.2219,-5.2223,-5.2271,-5.2305,-5.2357,-5.2399,-5.2443,-5.2507,-5.256,-5.2598,-5.2652,-5.2682,-5.2686,-5.2695,-5.2693,-5.2699,-5.2639,-5.2625,-5.2691,-5.2691,-5.2691,-5.2691,-5.2691,-5.2691,-5.2077,-5.2139,-5.216,-5.2241,-5.2272,-5.2331,-5.2358,-5.2395,-5.243,-5.2501,-5.2546,-5.2571,-5.2613,-5.267,-5.2719,-5.2729,-5.2748,-5.2757,-5.2767,-5.271,-5.2703,-5.2697,-5.2684,-5.2761,-5.2761,-5.2824,-5.2825,-5.2825]}]]